Location: Sobotiste
(48.7170°N, 17.4000°E)
Time: 08:48:16
(UTC+02:00)

YUBILEINY - Pass Details

Date: 15 March 2026
Orbit: 1477 x 1509 km, 82.5° (Epoch: 17 April)

Event Time Altitude Azimuth Distance (km) Brightness Sun altitude
Rises 03:54:50 0° 347° (NNW) 4,623 ? -21.7°
Reaches altitude 10° 03:57:47 10° 344° (NNW) 3,636 ? -21.2°
Maximum altitude 04:06:10 54° 270° (W) 1,747 ? -19.9°
Drops below altitude 10° 04:14:29 10° 196° (SSW) 3,606 ? -18.7°
Sets 04:17:25 0° 192° (SSW) 4,582 ? -18.2°
